Weather History for PHMK - March, 2013

Change the Weather History Date:

Friday, March 8, 2013

  Actual Average Record
Temperature  
Mean Temperature 68 °F -  
Max Temperature 78 °F 78 °F 85 °F (1986)
Min Temperature 59 °F 64 °F 52 °F (1987)
Cooling Degree Days 4    
Growing Degree Days 18 (Base 50)    
Moisture  
Dew Point 61 °F    
Average Humidity 73    
Maximum Humidity 96    
Minimum Humidity 45    
Precipitation  
Precipitation 0.00 in - - ()
Sea Level Pressure  
Sea Level Pressure 29.99 in    
Wind  
Wind Speed 6 mph (SE)    
Max Wind Speed 13 mph    
Max Gust Speed -    
Visibility 10 miles    
Events      
Averages and records for this station are not official NWS values.
T = Trace of Precipitation, MM = Missing Value Source: NWS Daily Summary

Daily Weather History Graph

Daily Weather History Graph

Search for Another Location

Airport or City:

Trip Planner

Search our weather history database for the weather conditions in past years. The results will help you decide how hot, cold, wet, or windy it might be!

Date:

Astronomy

Mar. 08, 2013 Rise Set
Actual Time 6:42 AM HST 6:35 PM HST
Civil Twilight 6:20 AM HST 6:57 PM HST
Nautical Twilight 5:54 AM HST 7:23 PM HST
Astronomical Twilight 5:29 AM HST 7:49 PM HST
Moon 4:15 AM HST (3/8) 3:59 PM HST (3/8)
Length of Visible Light 12h 37m
Length of Day
11h 52m
Waning Crescent, 10% of the Moon is Illuminated
Mar 8
Waning Crescent
Mar 11
New
Mar 19
First Quarter
Mar 26
Full
Apr 2
Last Quarter

Hourly Weather History & Observations

Time (HST) Temp. Dew Point Humidity Pressure Visibility Wind Dir Wind Speed Gust Speed Precip Events Conditions
12:54 AM 60.1 °F 57.9 °F 93% 30.06 in 10.0 mi ENE 3.5 mph - N/A   Clear
1:54 AM 62.1 °F 59.0 °F 90% 30.03 in 10.0 mi East 4.6 mph - N/A   Clear
2:54 AM 62.1 °F 59.0 °F 90% 30.01 in 10.0 mi ENE 5.8 mph - N/A   Clear
3:54 AM 61.0 °F 59.0 °F 93% 30.00 in 10.0 mi East 5.8 mph - N/A   Clear
4:54 AM 62.1 °F 60.1 °F 93% 29.99 in 10.0 mi ENE 4.6 mph - N/A   Clear
5:54 AM 59.0 °F 55.9 °F 90% 30.00 in 10.0 mi ENE 4.6 mph - N/A   Clear
6:54 AM 59.0 °F 57.9 °F 96% 30.02 in 10.0 mi ENE 3.5 mph - N/A   Clear
7:54 AM 66.9 °F 63.0 °F 87% 30.02 in 10.0 mi Calm Calm - N/A   Clear
8:54 AM 71.1 °F 63.0 °F 75% 30.04 in 10.0 mi SE 6.9 mph - N/A   Clear
9:54 AM 73.0 °F 62.1 °F 68% 30.04 in 10.0 mi SSE 4.6 mph - N/A   Clear
10:54 AM 75.0 °F 62.1 °F 64% 30.03 in 10.0 mi South 8.1 mph - N/A   Partly Cloudy
11:54 AM 77.0 °F 60.1 °F 56% 30.01 in 10.0 mi South 9.2 mph - N/A   Clear
12:54 PM 77.0 °F 60.1 °F 56% 29.98 in 10.0 mi South 9.2 mph - N/A   Clear
1:54 PM 77.0 °F 57.9 °F 52% 29.95 in 10.0 mi SSE 8.1 mph - N/A   Partly Cloudy
2:54 PM 78.1 °F 55.9 °F 46% 29.94 in 10.0 mi SSW 12.7 mph - N/A   Clear
3:54 PM 77.0 °F 54.0 °F 45% 29.93 in 10.0 mi SSE 12.7 mph - N/A   Clear
4:54 PM 75.9 °F 57.0 °F 52% 29.93 in 10.0 mi SSE 8.1 mph - N/A   Clear
5:54 PM 73.0 °F 61.0 °F 66% 29.94 in 10.0 mi South 5.8 mph - N/A   Scattered Clouds
6:54 PM 73.0 °F 63.0 °F 71% 29.96 in 10.0 mi South 9.2 mph - N/A   Overcast
7:23 PM 71.6 °F 62.6 °F 73% 29.95 in 8.0 mi SSE 10.4 mph - N/A   Scattered Clouds
7:54 PM 72.0 °F 63.0 °F 73% 29.98 in 10.0 mi South 8.1 mph - N/A   Mostly Cloudy
8:09 PM 71.6 °F 62.6 °F 73% 29.97 in 10.0 mi South 11.5 mph - N/A   Mostly Cloudy
8:54 PM 72.0 °F 63.0 °F 73% 29.99 in 10.0 mi SSE 8.1 mph - N/A   Mostly Cloudy
9:13 PM 71.6 °F 62.6 °F 73% 29.98 in 10.0 mi SSE 8.1 mph - N/A   Mostly Cloudy
9:20 PM 71.6 °F 62.6 °F 73% 29.99 in 10.0 mi South 8.1 mph - N/A   Overcast
9:54 PM 72.0 °F 63.0 °F 73% 30.01 in 10.0 mi South 8.1 mph - N/A   Overcast
10:13 PM 71.6 °F 64.4 °F 78% 30.00 in 10.0 mi SSE 6.9 mph - N/A   Overcast
10:37 PM 71.6 °F 62.6 °F 73% 29.99 in 10.0 mi SSE 8.1 mph - N/A   Overcast
10:54 PM 72.0 °F 64.0 °F 76% 30.00 in 10.0 mi SSE 8.1 mph - N/A   Overcast
11:54 PM 72.0 °F 64.0 °F 76% 29.99 in 10.0 mi SSE 11.5 mph - N/A   Overcast